Change the Weather History Date:

Wednesday, July 10, 2013

  Actual Average Record
Temperature  
Mean Temperature 88 °F -  
Max Temperature 102 °F 97 °F 111 °F (2002)
Min Temperature 74 °F 64 °F 59 °F (2000)
Cooling Degree Days 23    
Growing Degree Days 38 (Base 50)    
Moisture  
Dew Point 40 °F    
Average Humidity 20    
Maximum Humidity 29    
Minimum Humidity 9    
Precipitation  
Precipitation 0.00 in - - ()
Sea Level Pressure  
Sea Level Pressure 29.91 in    
Wind  
Wind Speed 11 mph (WSW)    
Max Wind Speed 20 mph    
Max Gust Speed 23 mph    
Visibility 10 miles    
Events Rain    
Averages and records for this station are not official NWS values.
T = Trace of Precipitation, MM = Missing Value Source: NWS Daily Summary

Daily Weather History Graph

Daily Weather History Graph

Search for Another Location

Airport or City:

Trip Planner

Search our weather history database for the weather conditions in past years. The results will help you decide how hot, cold, wet, or windy it might be!

Date:

Astronomy

Jul. 10, 2013 Rise Set
Actual Time 5:46 AM PDT 8:07 PM PDT
Civil Twilight 5:17 AM PDT 8:36 PM PDT
Nautical Twilight 4:41 AM PDT 9:12 PM PDT
Astronomical Twilight 4:01 AM PDT 9:51 PM PDT
Moon 8:04 AM PDT (7/10) 9:28 PM PDT (7/10)
Length of Visible Light 15h 19m
Length of Day
14h 21m
Waxing Crescent, 6% of the Moon is Illuminated
Jul 10
Waxing Crescent
Jul 15
First Quarter
Jul 22
Full
Jul 29
Last Quarter
Aug 6
New

Hourly Weather History & Observations

Time (PDT) Temp. Dew Point Humidity Pressure Visibility Wind Dir Wind Speed Gust Speed Precip Events Conditions
12:58 AM 77.5 °F 37.2 °F 23% 29.91 in 10.0 mi SW 9.2 mph - N/A   Clear
1:58 AM 75.2 °F 36.5 °F 25% 29.90 in 10.0 mi SW 10.4 mph - N/A   Clear
2:58 AM 74.7 °F 37.0 °F 26% 29.90 in 10.0 mi SW 6.9 mph - N/A   Scattered Clouds
3:13 AM 75.2 °F 37.4 °F 25% 29.99 in 10.0 mi SW 6.9 mph - N/A   Mostly Cloudy
3:58 AM 75.2 °F 37.6 °F 26% 29.89 in 10.0 mi SSW 9.2 mph - N/A   Overcast
4:58 AM 75.6 °F 38.8 °F 27% 29.89 in 10.0 mi SSW 9.2 mph - N/A   Overcast
5:58 AM 76.1 °F 38.3 °F 26% 29.89 in 90.0 mi SW 6.9 mph - N/A   Mostly Cloudy
6:18 AM 77.0 °F 39.2 °F 26% 30.00 in 90.0 mi South 8.1 mph - N/A   Mostly Cloudy
6:24 AM 77.0 °F 39.2 °F 26% 29.99 in 80.0 mi SSW 8.1 mph - N/A   Mostly Cloudy
6:31 AM 78.8 °F 42.8 °F 28% 29.99 in 80.0 mi SW 6.9 mph - N/A   Mostly Cloudy
6:58 AM 78.4 °F 40.5 °F 26% 29.90 in 80.0 mi WSW 10.4 mph - N/A   Mostly Cloudy
7:03 AM 78.8 °F 39.2 °F 24% 29.99 in 80.0 mi West 9.2 mph - N/A   Mostly Cloudy
7:58 AM 81.7 °F 39.7 °F 22% 29.92 in 80.0 mi SSW 8.1 mph - N/A   Overcast
8:58 AM 83.8 °F 40.1 °F 21% 29.92 in 80.0 mi SSW 5.8 mph - N/A   Mostly Cloudy
9:28 AM 87.8 °F 41.0 °F 19% 29.99 in 80.0 mi WSW 6.9 mph - N/A   Mostly Cloudy
9:43 AM 89.6 °F 39.2 °F 17% 29.99 in 80.0 mi SW 10.4 mph - N/A   Mostly Cloudy
9:58 AM 91.2 °F 40.8 °F 17% 29.90 in 80.0 mi SSW 10.4 mph - N/A   Mostly Cloudy
10:08 AM 93.2 °F 39.2 °F 15% 29.99 in 80.0 mi SSW 10.4 mph - N/A   Mostly Cloudy
10:58 AM 98.8 °F 34.9 °F 11% 29.88 in 80.0 mi West 12.7 mph 19.6 mph N/A   Mostly Cloudy
11:58 AM 101.3 °F 33.3 °F 9% 29.86 in 80.0 mi WNW 16.1 mph - N/A   Mostly Cloudy
12:35 PM 102.2 °F 35.6 °F 10% 29.94 in 70.0 mi West 18.4 mph 23.0 mph N/A   Mostly Cloudy
12:53 PM 100.4 °F 35.6 °F 11% 29.94 in 70.0 mi WNW 16.1 mph - N/A   Mostly Cloudy
12:58 PM 101.1 °F 35.8 °F 10% 29.85 in 70.0 mi WNW 15.0 mph - N/A   Mostly Cloudy
1:08 PM 102.2 °F 35.6 °F 10% 29.94 in 70.0 mi WNW 15.0 mph - N/A   Mostly Cloudy
1:37 PM 102.2 °F 37.4 °F 11% 29.93 in 70.0 mi WSW 13.8 mph 20.7 mph N/A   Mostly Cloudy
1:42 PM 102.2 °F 37.4 °F 11% 29.93 in 70.0 mi WSW 9.2 mph 18.4 mph N/A   Mostly Cloudy
1:52 PM 102.2 °F 39.2 °F 11% 29.93 in 70.0 mi WNW 10.4 mph - N/A   Mostly Cloudy
1:58 PM 101.1 °F 38.1 °F 11% 29.85 in 70.0 mi West 15.0 mph - N/A   Mostly Cloudy
2:03 PM 102.2 °F 39.2 °F 11% 29.93 in 70.0 mi West 12.7 mph - N/A   Mostly Cloudy
2:58 PM 100.4 °F 37.6 °F 11% 29.83 in 80.0 mi WNW 13.8 mph - N/A   Mostly Cloudy
3:50 PM 100.4 °F 37.4 °F 11% 29.91 in 80.0 mi WSW 17.3 mph - N/A   Mostly Cloudy
3:58 PM 99.5 °F 42.3 °F 14% 29.83 in 80.0 mi WSW 19.6 mph - N/A   Mostly Cloudy
4:58 PM 96.3 °F 44.8 °F 17% 29.82 in 80.0 mi West 17.3 mph - N/A   Mostly Cloudy
5:58 PM 93.4 °F 47.8 °F 21% 29.80 in 80.0 mi SW 12.7 mph - N/A   Mostly Cloudy
6:58 PM 94.8 °F 33.3 °F 11% 29.79 in 80.0 mi West 13.8 mph - N/A   Mostly Cloudy
7:58 PM 92.3 °F 40.6 °F 17% 29.81 in 80.0 mi West 13.8 mph - N/A   Mostly Cloudy
8:11 PM 91.4 °F 42.8 °F 18% 29.90 in 80.0 mi SW 16.1 mph 19.6 mph N/A   Mostly Cloudy
8:49 PM 86.0 °F 48.2 °F 27% 29.91 in 30.0 mi SW 13.8 mph - N/A Rain Light Rain Showers
8:58 PM 84.9 °F 48.9 °F 29% 29.83 in 30.0 mi SW 12.7 mph - N/A Rain Light Rain Showers
9:17 PM 84.2 °F 48.2 °F 29% 29.91 in 30.0 mi SSW 9.2 mph - N/A   Overcast
9:58 PM 85.1 °F 46.9 °F 26% 29.85 in 30.0 mi SSW 11.5 mph - N/A   Overcast
10:03 PM 84.2 °F 48.2 °F 29% 29.93 in 10.0 mi SSW 10.4 mph - N/A   Scattered Clouds
10:13 PM 84.2 °F 46.4 °F 27% 29.92 in 10.0 mi WSW 12.7 mph - N/A   Mostly Cloudy
10:18 PM 84.2 °F 44.6 °F 25% 29.92 in 10.0 mi West 15.0 mph - N/A   Scattered Clouds
10:30 PM 84.2 °F 46.4 °F 27% 29.93 in 10.0 mi SW 10.4 mph 21.9 mph N/A   Light Drizzle
10:39 PM 86.0 °F 42.8 °F 22% 29.93 in 10.0 mi WSW 16.1 mph 21.9 mph N/A   Partly Cloudy
10:58 PM 88.0 °F 39.9 °F 18% 29.83 in 10.0 mi West 15.0 mph - 0.00 in   Partly Cloudy
11:33 PM 87.8 °F 41.0 °F 19% 29.92 in 10.0 mi West 9.2 mph - N/A   Mostly Cloudy
11:38 PM 87.8 °F 41.0 °F 19% 29.92 in 10.0 mi West 9.2 mph - N/A   Scattered Clouds
11:58 PM 85.5 °F 45.5 °F 25% 29.83 in 10.0 mi SSW 8.1 mph - N/A   Scattered Clouds